Location: Easthampton
(42.2676°N, 72.6690°W)
Time: 15:18:56
(UTC+00:00)

RS-44 - Pass Details

Date: 22 April 2024
Orbit: 1174 x 1511 km, 82.5° (Epoch: 25 May)

Event Time Altitude Azimuth Distance (km) Brightness Sun altitude
Rises 01:23:24 0° 207° (SSW) 4,638 ? -17.9°
Reaches altitude 10° 01:26:30 10° 213° (SSW) 3,651 ? -18.3°
Maximum altitude 01:34:55 48° 285° (WNW) 1,858 ? -19.6°
Drops below altitude 10° 01:43:02 10° 358° (N) 3,502 ? -20.7°
Sets 01:45:58 0° 5° (N) 4,436 ? -21.1°
